EN

Hourly Weather Santa Rosa de Osos

Today, 23 January, Saturday

Time Temperature Precipitation Wind Pressure Humidity
00:00 +10°C° 0.1 mm 0 mps 559 mmHg 97%
01:00 +9°C° 0.1 mm 0 mps 559 mmHg 96%
02:00 +9°C° 0 mm 0 mps 558 mmHg 97%
03:00 +9°C° 0 mm 0 mps 558 mmHg 97%
04:00 +9°C° 0 mm 0 mps 558 mmHg 97%
05:00 +9°C° 0 mm 0 mps 558 mmHg 96%
06:00 +9°C° 0 mm 0 mps 559 mmHg 96%
07:00 +10°C° 0 mm 0 mps 559 mmHg 96%
08:00 +13°C° 0.1 mm 1 mps 561 mmHg 87%
09:00 +15°C° 0.1 mm 1 mps 562 mmHg 77%
10:00 +18°C° 0.1 mm 1 mps 563 mmHg 68%
11:00 +19°C° 0.5 mm 1 mps 563 mmHg 68%
12:00 +19°C° 0.5 mm 1 mps 563 mmHg 69%
13:00 +19°C° 0.5 mm 2 mps 562 mmHg 69%
14:00 +18°C° 0.7 mm 2 mps 561 mmHg 73%
15:00 +18°C° 0.7 mm 1 mps 560 mmHg 78%
16:00 +16°C° 0.7 mm 1 mps 559 mmHg 82%
17:00 +15°C° 0.4 mm 1 mps 559 mmHg 91%
18:00 +13°C° 0.4 mm 1 mps 559 mmHg 95%
19:00 +11°C° 0.4 mm 0 mps 558 mmHg 98%
20:00 +11°C° 0.1 mm 0 mps 559 mmHg 98%
21:00 +10°C° 0.1 mm 0 mps 559 mmHg 97%
22:00 +10°C° 0.1 mm 0 mps 559 mmHg 96%
23:00 +9°C° 0 mm 0 mps 559 mmHg 96%

Tomorrow, 24 January, Sunday

Time Temperature Precipitation Wind Pressure Humidity
00:00 +9°C° 0 mm 0 mps 558 mmHg 96%
01:00 +9°C° 0 mm 0 mps 558 mmHg 96%
02:00 +9°C° 0 mm 0 mps 557 mmHg 96%
03:00 +8°C° 0 mm 0 mps 557 mmHg 96%
04:00 +8°C° 0 mm 0 mps 557 mmHg 95%
05:00 +8°C° 0 mm 0 mps 557 mmHg 95%
06:00 +9°C° 0 mm 0 mps 558 mmHg 95%
07:00 +9°C° 0 mm 0 mps 558 mmHg 95%
08:00 +12°C° 0 mm 1 mps 560 mmHg 86%
09:00 +15°C° 0 mm 1 mps 561 mmHg 78%
10:00 +18°C° 0 mm 1 mps 562 mmHg 69%
11:00 +19°C° 0.5 mm 1 mps 562 mmHg 71%
12:00 +19°C° 0.5 mm 1 mps 561 mmHg 72%
13:00 +19°C° 0.5 mm 1 mps 561 mmHg 73%
14:00 +19°C° 0.9 mm 1 mps 560 mmHg 78%
15:00 +18°C° 0.9 mm 1 mps 559 mmHg 82%
16:00 +16°C° 0.9 mm 1 mps 559 mmHg 86%
17:00 +15°C° 0.3 mm 1 mps 558 mmHg 90%
18:00 +14°C° 0.3 mm 1 mps 558 mmHg 94%
19:00 +11°C° 0.3 mm 0 mps 558 mmHg 98%
20:00 +11°C° 0.1 mm 0 mps 558 mmHg 98%
21:00 +11°C° 0.1 mm 0 mps 558 mmHg 97%
22:00 +10°C° 0.1 mm 0 mps 558 mmHg 97%
23:00 +10°C° 0 mm 0 mps 558 mmHg 97%

Day after tomorrow, 25 January, Monday

Time Temperature Precipitation Wind Pressure Humidity
00:00 +10°C° 0 mm 0 mps 558 mmHg 97%
01:00 +10°C° 0 mm 0 mps 557 mmHg 97%
02:00 +9°C° 0 mm 0 mps 557 mmHg 97%
03:00 +9°C° 0 mm 0 mps 557 mmHg 96%
04:00 +9°C° 0 mm 0 mps 557 mmHg 96%
05:00 +9°C° 0 mm 0 mps 557 mmHg 95%
06:00 +9°C° 0 mm 0 mps 557 mmHg 95%
07:00 +10°C° 0 mm 0 mps 558 mmHg 95%
08:00 +12°C° 0.1 mm 0 mps 559 mmHg 88%
09:00 +15°C° 0.1 mm 1 mps 561 mmHg 81%
10:00 +18°C° 0.1 mm 1 mps 562 mmHg 73%
11:00 +18°C° 1 mm 1 mps 561 mmHg 76%
12:00 +18°C° 1 mm 1 mps 561 mmHg 79%
13:00 +18°C° 1 mm 1 mps 560 mmHg 82%
14:00 +18°C° 0.7 mm 1 mps 560 mmHg 82%
15:00 +18°C° 0.7 mm 1 mps 559 mmHg 82%
16:00 +18°C° 0.7 mm 1 mps 558 mmHg 83%
17:00 +15°C° 0.2 mm 1 mps 558 mmHg 88%
18:00 +14°C° 0.2 mm 1 mps 558 mmHg 93%
19:00 +12°C° 0.2 mm 0 mps 557 mmHg 98%
20:00 +11°C° 0 mm 0 mps 558 mmHg 97%
21:00 +11°C° 0 mm 0 mps 558 mmHg 97%
22:00 +11°C° 0 mm 0 mps 559 mmHg 97%
23:00 +11°C° 0 mm 0 mps 558 mmHg 97%

26 January, Tuesday

Time Temperature Precipitation Wind Pressure Humidity
00:00 +10°C° 0 mm 0 mps 558 mmHg 97%
01:00 +10°C° 0 mm 0 mps 558 mmHg 97%
02:00 +10°C° 0 mm 0 mps 557 mmHg 96%
03:00 +9°C° 0 mm 0 mps 557 mmHg 95%
04:00 +9°C° 0 mm 0 mps 557 mmHg 95%
05:00 +9°C° 0 mm 0 mps 558 mmHg 95%
06:00 +10°C° 0 mm 0 mps 558 mmHg 94%
07:00 +10°C° 0 mm 0 mps 559 mmHg 94%
08:00 +12°C° 0.1 mm 0 mps 560 mmHg 87%
09:00 +15°C° 0.1 mm 1 mps 561 mmHg 79%
10:00 +18°C° 0.1 mm 1 mps 562 mmHg 72%
11:00 +18°C° 0.6 mm 1 mps 562 mmHg 74%
12:00 +19°C° 0.6 mm 1 mps 561 mmHg 77%
13:00 +19°C° 0.6 mm 1 mps 561 mmHg 79%
14:00 +18°C° 0.7 mm 1 mps 560 mmHg 81%
15:00 +18°C° 0.7 mm 1 mps 560 mmHg 84%
16:00 +16°C° 0.7 mm 1 mps 559 mmHg 87%
17:00 +15°C° 0.2 mm 1 mps 559 mmHg 90%
18:00 +14°C° 0.2 mm 1 mps 558 mmHg 94%
19:00 +11°C° 0.2 mm 0 mps 558 mmHg 97%
20:00 +11°C° 0 mm 0 mps 558 mmHg 97%
21:00 +11°C° 0 mm 0 mps 558 mmHg 97%
22:00 +10°C° 0 mm 0 mps 559 mmHg 97%
23:00 +10°C° 0 mm 0 mps 558 mmHg 97%

27 January, Wednesday

Time Temperature Precipitation Wind Pressure Humidity
00:00 +10°C° 0 mm 0 mps 558 mmHg 97%
01:00 +10°C° 0 mm 0 mps 558 mmHg 97%
02:00 +10°C° 0 mm 0 mps 558 mmHg 97%
03:00 +9°C° 0 mm 0 mps 558 mmHg 97%
04:00 +9°C° 0 mm 0 mps 557 mmHg 97%
05:00 +9°C° 0 mm 0 mps 558 mmHg 96%
06:00 +9°C° 0 mm 0 mps 558 mmHg 95%
07:00 +9°C° 0 mm 0 mps 559 mmHg 94%
08:00 +12°C° 0 mm 0 mps 560 mmHg 85%
09:00 +15°C° 0 mm 1 mps 562 mmHg 75%
10:00 +19°C° 0 mm 1 mps 563 mmHg 66%
11:00 +19°C° 0.2 mm 1 mps 563 mmHg 65%
12:00 +20°C° 0.2 mm 1 mps 563 mmHg 64%
13:00 +19°C° 0.2 mm 2 mps 563 mmHg 63%
14:00 +19°C° 0.6 mm 1 mps 562 mmHg 70%
15:00 +18°C° 0.6 mm 1 mps 561 mmHg 77%
16:00 +16°C° 0.6 mm 1 mps 560 mmHg 84%
17:00 +15°C° 0.1 mm 1 mps 559 mmHg 89%
18:00 +13°C° 0.1 mm 1 mps 559 mmHg 93%
19:00 +11°C° 0.1 mm 0 mps 558 mmHg 98%
20:00 +11°C° 0 mm 0 mps 558 mmHg 97%
21:00 +10°C° 0 mm 0 mps 558 mmHg 97%
22:00 +10°C° 0 mm 0 mps 558 mmHg 96%
23:00 +10°C° 0 mm 0 mps 558 mmHg 96%

28 January, Thursday

Time Temperature Precipitation Wind Pressure Humidity
00:00 +10°C° 0 mm 0 mps 558 mmHg 96%
01:00 +10°C° 0 mm 0 mps 558 mmHg 97%
02:00 +9°C° 0 mm 0 mps 558 mmHg 96%
03:00 +9°C° 0 mm 0 mps 558 mmHg 96%
04:00 +9°C° 0 mm 0 mps 557 mmHg 96%
05:00 +9°C° 0 mm 0 mps 558 mmHg 95%
06:00 +9°C° 0 mm 0 mps 558 mmHg 94%
07:00 +9°C° 0 mm 0 mps 558 mmHg 93%
08:00 +13°C° 0 mm 1 mps 560 mmHg 82%
09:00 +16°C° 0 mm 1 mps 562 mmHg 71%
10:00 +19°C° 0 mm 1 mps 564 mmHg 60%
11:00 +20°C° 0.2 mm 1 mps 563 mmHg 60%
12:00 +20°C° 0.2 mm 1 mps 563 mmHg 61%
13:00 +20°C° 0.2 mm 1 mps 562 mmHg 62%
Show more

We Need Your Consent

Meteoprog and our Service Providers may store and access personal data such as cookies, device identifiers or other similar technologies on your device and process such data to personalise content and ads, as well as provide social media features and to analyse the traffic.

  • Store and/or access information on your device

    Cookies, device identifiers or other information can be stored or accessed on your device for the purposes indicated above.

  • Personalised ads and content, ad and content measurement, audience insights, and products development

    Ads and content can be personalised based on a profile. More data can be added to better personalise ads and content. Ad and content performance can be measured. Insights about the audience who saw the ads and content can be derived. Such data can be used to develop or improve user’s experience, systems and software.

By clicking ‘I Agree’ you will allow the use of indicated cookies, device identifiers, web beacons or other similar technologies. Your settings can be changed in the browser on your device.

For certain purposes, legitimate interests may be relied on, rather than consent. You can read more about this in our Privacy and Cookie Policy.